Houston Clover, TX

8:31 AM CDT on September 19, 2019 (GMT -0500)
Clover

Weather History for KLVJ - August, 2019

Change the Weather History Date:

Sunday, August 25, 2019

  Actual Average (KEFD) Record (KEFD)
Temperature  
Mean Temperature 83 °F -  
Max Temperature 90 °F 89 °F 98 °F (1999)
Min Temperature 77 °F 73 °F 71 °F (1997)
Cooling Degree Days 18    
Growing Degree Days 33 (Base 50)    
Moisture  
Dew Point 76 °F    
Average Humidity 85    
Maximum Humidity 94    
Minimum Humidity 63    
Precipitation  
Precipitation 0.75 in - - ()
Sea Level Pressure  
Sea Level Pressure 29.87 in    
Wind  
Wind Speed 3 mph (SSE)    
Max Wind Speed 13 mph    
Max Gust Speed 21 mph    
Visibility 9 miles    
Events Rain , Thunderstorm    
Averages and records for this station are not official NWS values.
T = Trace of Precipitation, MM = Missing Value Source: NWS Daily Summary

Daily Weather History Graph

Daily Weather History Graph

Search for Another Location

Airport or City:

Astronomy

Aug. 25, 2019 Rise Set
Actual Time 6:54 AM CDT 7:51 PM CDT
Civil Twilight 6:29 AM CDT 8:15 PM CDT
Nautical Twilight 6:00 AM CDT 8:44 PM CDT
Astronomical Twilight 5:31 AM CDT 9:14 PM CDT
Moon 1:43 AM CDT (8/25) 3:57 PM CDT (8/25)
Length of Visible Light 13h 45m
Length of Day
12h 56m
Waning Crescent, 29% of the Moon is Illuminated
Aug 25
Waning Crescent
Aug 30
New
Sep 5
First Quarter
Sep 13
Full
Sep 21
Last Quarter

Hourly Weather History & Observations

Time (CDT) Temp. Heat Index Dew Point Humidity Pressure Visibility Wind Dir Wind Speed Gust Speed Precip Events Conditions
12:53 AM 80.1 °F 85.4 °F 75.9 °F 87% 29.91 in 10.0 mi Calm Calm - N/A   Clear
1:53 AM 80.1 °F 85.4 °F 75.9 °F 87% 29.88 in 10.0 mi Calm Calm - N/A   Clear
2:53 AM 79.0 °F - 75.9 °F 90% 29.88 in 10.0 mi Calm Calm - N/A   Clear
3:53 AM 79.0 °F - 75.9 °F 90% 29.88 in 10.0 mi Calm Calm - N/A   Clear
4:53 AM 79.0 °F - 75.9 °F 90% 29.88 in 10.0 mi Calm Calm - N/A   Clear
5:53 AM 79.0 °F - 75.9 °F 90% 29.87 in 10.0 mi Calm Calm - N/A   Partly Cloudy
6:53 AM 79.0 °F - 75.9 °F 90% 29.87 in 10.0 mi Calm Calm - N/A   Clear
7:53 AM 80.1 °F 85.4 °F 75.9 °F 87% 29.88 in 10.0 mi Calm Calm - N/A   Clear
8:53 AM 82.0 °F 90.2 °F 77.0 °F 85% 29.90 in 10.0 mi WSW 3.5 mph - N/A   Partly Cloudy
9:53 AM 86.0 °F 96.9 °F 77.0 °F 74% 29.90 in 10.0 mi Calm Calm - N/A   Mostly Cloudy
10:03 AM 86.0 °F 96.9 °F 77.0 °F 74% 29.91 in 10.0 mi Calm Calm - N/A   Mostly Cloudy
10:26 AM 87.1 °F 98.8 °F 77.0 °F 72% 29.91 in 10.0 mi Calm Calm - N/A   Partly Cloudy
10:53 AM 88.0 °F 98.5 °F 75.9 °F 67% 29.90 in 10.0 mi Calm Calm - N/A   Scattered Clouds
11:53 AM 89.1 °F 99.1 °F 75.0 °F 63% 29.88 in 10.0 mi NW 3.5 mph - N/A   Mostly Cloudy
12:31 PM 80.1 °F 85.1 °F 75.0 °F 85% 29.89 in 9.0 mi SSW 6.9 mph - N/A   Mostly Cloudy
12:36 PM 80.1 °F 85.1 °F 75.0 °F 85% 29.90 in 6.0 mi SW 11.5 mph 18.4 mph N/A Thunderstorm Haze
12:40 PM 79.0 °F - 75.0 °F 88% 29.90 in 2.5 mi SW 9.2 mph 18.4 mph 0.03 in Rain , Thunderstorm Heavy Rain
12:48 PM 77.0 °F - 75.2 °F 94% 29.91 in 0.8 mi SSW 11.5 mph 20.7 mph 0.20 in Rain , Thunderstorm Heavy Rain
12:49 PM 77.0 °F - 75.0 °F 94% 29.91 in 0.8 mi SSW 12.7 mph 20.7 mph 0.24 in Rain , Thunderstorm Heavy Rain
1:11 PM 77.0 °F - 75.0 °F 94% 29.90 in 1.2 mi SSE 10.4 mph - 0.48 in Rain , Thunderstorm Thunderstorms and Rain
1:16 PM 77.0 °F - 75.0 °F 94% 29.90 in 2.0 mi SSE 6.9 mph - 0.49 in Rain , Thunderstorm Rain
1:26 PM 77.0 °F - 75.0 °F 94% 29.89 in 5.0 mi SE 10.4 mph - 0.50 in Rain , Thunderstorm Light Rain
1:50 PM 78.8 °F - 75.2 °F 89% 29.88 in 10.0 mi South 4.6 mph - 0.50 in   Mostly Cloudy
1:53 PM 78.1 °F - 75.0 °F 90% 29.88 in 10.0 mi South 4.6 mph - 0.50 in   Mostly Cloudy
2:08 PM 79.0 °F - 75.0 °F 88% 29.89 in 10.0 mi Calm Calm - N/A Thunderstorm Thunderstorm
2:23 PM 79.0 °F - 75.9 °F 90% 29.88 in 10.0 mi ENE 5.8 mph - 0.00 in Rain Light Rain
2:53 PM 79.0 °F - 75.9 °F 90% 29.88 in 10.0 mi ENE 3.5 mph - 0.00 in Rain Light Rain
3:16 PM 80.1 °F 85.4 °F 75.9 °F 87% 29.89 in 10.0 mi NE 8.1 mph - 0.00 in Rain , Thunderstorm Light Rain
3:39 PM 79.0 °F - 75.9 °F 90% 29.87 in 10.0 mi East 9.2 mph - 0.00 in   Overcast
3:53 PM 79.0 °F - 75.0 °F 88% 29.86 in 10.0 mi East 6.9 mph - 0.00 in   Mostly Cloudy
4:16 PM 80.1 °F 85.4 °F 75.9 °F 87% 29.85 in 6.0 mi East 8.1 mph - 0.01 in Rain Rain
4:53 PM 82.0 °F 88.6 °F 75.0 °F 79% 29.83 in 10.0 mi SE 10.4 mph - 0.01 in   Clear
5:53 PM 84.0 °F 91.9 °F 75.0 °F 74% 29.82 in 10.0 mi SSE 9.2 mph - N/A   Clear
6:53 PM 84.0 °F 91.9 °F 75.0 °F 74% 29.80 in 10.0 mi South 8.1 mph - N/A   Clear
7:53 PM 82.9 °F 90.2 °F 75.0 °F 77% 29.80 in 10.0 mi South 8.1 mph - N/A   Clear
8:31 PM 82.0 °F 89.4 °F 75.9 °F 82% 29.80 in 10.0 mi SSE 5.8 mph - N/A   Mostly Cloudy
8:53 PM 82.0 °F 90.2 °F 77.0 °F 85% 29.81 in 10.0 mi SSE 4.6 mph - N/A   Overcast
9:12 PM 82.0 °F 90.2 °F 77.0 °F 85% 29.82 in 10.0 mi South 3.5 mph - N/A   Mostly Cloudy
9:26 PM 81.0 °F 87.9 °F 77.0 °F 88% 29.82 in 10.0 mi South 4.6 mph - N/A   Scattered Clouds
9:53 PM 81.0 °F 87.9 °F 77.0 °F 88% 29.83 in 9.0 mi South 4.6 mph - N/A   Clear
10:53 PM 81.0 °F 87.9 °F 77.0 °F 88% 29.83 in 9.0 mi SSE 3.5 mph - N/A   Clear
11:53 PM 80.1 °F 85.4 °F 75.9 °F 87% 29.84 in 9.0 mi SSE 3.5 mph - N/A   Clear